Regional Weather Roundup
Issued by NWS Lake Charles, LA

Home | Current Version | Previous Version | Text Only | Print | Product List | Glossary On
Versions: 1 2 3 4 5 6 7 8 9 10 11 12 13 14 15 16 17 18 19 20 21 22 23 24 25 26 27 28 29 30 31 32 33 34 35 36 37 38 39 40 41 42 43 44 45 46 47 48 49 50
000
ASUS44 KLCH 140010
RWRLCH
REGIONAL WEATHER ROUNDUP
NATIONAL WEATHER SERVICE LAKE CHARLES LA
600 PM CST SAT FEB 13 2016

Note: "fair" indicates few or no clouds below 12,000 feet with no
significant weather and/or obstructions to visibility.


ACROSS SOUTHEAST TEXAS

CITY           SKY/WX    TMP DP  RH WIND       PRES   REMARKS
BEAUMONT       CLOUDY    58  47  66 SE10      30.29F
BEAUMONT CITY  CLOUDY    59  46  60 SE9       30.30S
ORANGE         CLOUDY    59  45  60 SE6       30.32F
JASPER         CLOUDY    63  41  45 S6        30.31S
$$

ACROSS CENTRAL LOUISIANA

CITY           SKY/WX    TMP DP  RH WIND       PRES   REMARKS
LEESVILLE      PTCLDY    56  39  52 E6        30.30F HAZE
FULLERTON      FAIR      54  41  61 CALM      30.29F
ALEXANDRIA INT PTCLDY    54  32  43 E7        30.33R
ESLER FIELD    MOCLDY    55  31  39 E3        30.35R
DERIDDER         N/A     62  37  40 SE5       30.32S
OAKDALE          N/A     55  41  59 CALM      30.33F
OPELOUSAS      FAIR      58  36  42 CALM      30.33S
$$

ACROSS SOUTHWEST AND SOUTH CENTRAL LOUISIANA

CITY           SKY/WX    TMP DP  RH WIND       PRES   REMARKS
SULPHUR        CLOUDY    59  48  67 MISG      30.32S
LAKE CHARLES   CLOUDY    60  47  61 S6        30.31F
CHENNAULT INT  CLEAR     61  41  48 E3        30.31F
CAMERON PHI    NOT AVBL
DEQUINCY       CLOUDY    60  40  48 CALM      30.30F
JENNINGS       HAZE      61  41  48 NE3       30.31F VSB 1
LAFAYETTE      CLEAR     62  37  39 CALM      30.32S
NEW IBERIA     CLEAR     58  39  49 S7        30.33S
ABBEVILLE      CLOUDY    58  42  56 SE5       30.33S
PATTERSON      CLEAR     59  37  44 E5        30.34R
SALT POINT       N/A     57  45  64 VRB3      30.32S
$$

SELECTED SITES ACROSS THE REGION

CITY           SKY/WX    TMP DP  RH WIND       PRES   REMARKS
HOUSTON BUSH   MOCLDY    60  51  72 SE15      30.25F
HOUSTON HOBBY  MOCLDY    61  52  72 E10       30.26S
GALVESTON      CLOUDY    60  56  86 E13       30.28S
COLLEGE STAT   PTCLDY    69  55  60 SE9       30.19F
CONROE         PTCLDY    62  50  64 SE9       30.25S
HUNTSVILLE     PTCLDY    66  50  56 SE8       30.21F
LUFKIN         CLEAR     59  41  51 E7        30.25F
SHREVEPORT     CLOUDY    57  32  38 SE9       30.29F
MONROE         CLEAR     45  18  34 E8        30.39R
NATCHEZ MS     CLEAR     52  27  37 N6        30.35R
BATON ROUGE    CLEAR     59  35  40 CALM      30.33R
N.O. INTL ARPT PTCLDY    59  31  34 E3        30.33S
SLIDELL        CLEAR     54  41  61 S3        30.33S
$$

MARINE REPORTS

STATION/POSITION TIME  SKY/WX   TEMP    WIND        PRES    VSBY
                                AIR SEA DIR/SP/G
                 (UTC)          (F)     (DEG/KT/KT) (MB)    (MI)
BUOY 30 S HIGH I 2350            60 60  100/ 16/ 17 1025.0F
WVE H/P(F/S)=  4/ 5

SEA RIM ST PARK  0000            58     110/ 14/ 17 1026.4F
PORT ARTHUR      2300               58              1026.4F
SABINE PASS N    2300            58 59              1027.5F
TEXAS POINT      NOT AVBL
CALCASIEU PASS   2300            58 60              1025.7S
LK CHARLES BEACH 2300            63 58              1026.9S
MARSH ISLAND     NOT AVBL
FRESH WATER LOCK 2300            58 64              1027.0R
AMERADA PASS     2300            60 54              1026.8R
$$



USA.gov is the U.S. government's official web portal to all federal, state and local government web resources and services.